Temp
100 98 94 93 94 93 94 93 92 94 93 91 91 89 89 88 89 85 83 83 83 83 83 83 83 84 80 79 79 77 76 80 77 85 91 86 85 90 93 93 93 93 93
99 96 95 95 94 96 94 95 94 92 93 91 88 85 86 86 86 82 82 84 84 84 84 83 84 87 85 83 79 79 79 78 75 75 78 80 83 86 84 82 86 91 89
97 96 97 95 96 97 98 97 95 93 91 91 87 85 84 84 83 84 84 83 83 84 84 82 80 82 82 83 80 78 78 79 79 77 73 72 74 81 81 81 80 78 82
99 98 96 96 96 98 97 94 96 90 87 86 86 84 84 84 83 82 81 79 79 78 76 75 81 80 78 78 78 78 79 78 78 76 74 70 70 72 73 73 75 78 77
95 95 93 94 95 87 90 91 90 84 85 82 83 84 84 85 81 79 81 81 80 77 80 81 82 80 75 74 78 80 77 75 74 74 74 71 70 72 73 76 74 78 80
90 91 91 89 89 88 88 81 85 76 83 81 84 84 82 82 68 69 72 81 78 80 79 81 82 79 77 72 72 71 72 73 74 73 73 72 75 74 75 76 75 73 72
91 90 88 88 86 85 82 82 81 83 83 84 84 82 80 78 65 66 71 79 78 79 80 79 80 80 78 79 74 71 71 69 68 73 73 73 73 74 73 74 73 71 71
85 84 84 83 83 84 84 82 84 85 85 85 83 83 80 75 64 64 67 79 79 79 79 79 77 76 72 71 74 76 78 77 76 77 76 75 76 74 72 71 71 71 71
83 82 82 84 84 84 83 84 85 84 84 83 83 82 81 77 62 63 69 85 80 78 79 76 79 76 62 62 72 75 76 76 72 70 68 67 67 66 68 70 67 67 68
81 82 82 83 84 84 84 83 84 84 84 86 82 81 71 79 61 61 66 90 85 85 83 77 63 68 60 59 75 78 77 75 78 72 73 72 73 72 70 71 70 68 69
85 85 85 85 85 85 84 84 84 83 82 82 81 81 81 76 74 61 61 84 86 87 86 85 80 61 59 58 59 76 73 72 73 79 74 75 75 73 72 70 70 69 65
86 85 85 85 88 87 84 84 84 82 81 81 81 84 85 81 62 62 62 63 67 86 84 84 77 60 60 59 67 64 64 66 80 79 75 73 73 74 72 73 72 69 69
85 84 85 87 87 86 84 83 86 84 87 86 87 88 87 87 84 62 62 63 64 82 85 73 65 63 61 63 61 64 65 80 79 78 76 76 74 76 76 74 73 71 71
84 84 85 85 85 87 90 90 92 91 91 90 89 89 89 89 89 85 81 79 66 75 70 78 75 73 63 73 71 73 83 81 77 77 79 74 77 73 71 79 75 72 67
85 86 87 89 88 88 85 87 90 82 76 87 91 91 89 88 80 63 67 83 81 72 65 75 75 75 76 84 83 82 78 83 79 80 78 77 72 75 73 78 76 75 71
87 89 91 92 91 91 91 88 56 57 53 52 53 66 80 59 52 50 48 49 49 51 76 75 83 76 75 79 85 84 82 76 80 78 80 77 73 74 75 75 75 72 71
89 90 93 87 95 93 93 87 86 71 56 53 54 53 50 57 50 49 48 48 48 54 76 82 81 74 77 81 84 84 80 78 78 80 75 75 75 77 78 75 77 73 69
90 73 93 94 96 94 94 93 94 88 85 83 58 59 52 49 48 49 48 51 79 69 83 86 85 78 78 78 80 82 82 80 77 75 77 76 76 74 74 74 73 74 74
90 93 93 96 96 89 96 95 96 94 94 92 87 62 56 48 48 48 50 80 88 91 91 90 87 84 79 78 76 80 81 79 77 79 79 78 78 77 77 77 78 64 68
91 76 83 96 95 94 95 95 95 94 93 93 93 90 84 72 81 82 80 88 91 92 91 90 90 79 83 80 77 80 80 80 80 80 80 79 79 78 77 75 76 78 72
94 93 81 93 96 96 96 96 96 96 95 95 96 85 62 91 92 92 93 89 94 92 90 90 91 89 87 85 87 84 82 83 82 80 81 80 76 75 73 77 75 76 75
96 93 91 92 94 94 96 97 96 95 96 96 97 86 62 93 94 95 96 94 95 93 95 91 91 91 91 88 87 88 82 79 81 81 81 80 78 78 78 79 77 78 73
96 96 95 94 95 82 94 95 96 96 96 96 97 95 91 94 97 97 96 97 97 95 96 94 91 91 91 91 92 89 85 80 81 80 79 80 79 78 76 76 77 78 74
97 97 96 95 93 93 94 95 95 79 92 96 97 97 97 97 97 96 96 96 97 96 96 93 93 92 91 90 93 91 90 87 87 85 81 80 75 73 76 78 80 78 77
98 96 95 95 94 92 93 95 96 96 96 96 97 97 98 98 97 96 96 96 96 94 94 94 93 93 90 89 88 88 60 51 73 57 85 80 76 76 77 75 79 75 75
98 96 95 95 94 94 94 94 95 95 96 96 97 96 96 96 97 97 97 96 95 95 95 95 94 92 92 91 89 59 42 47 64 44 77 84 77 77 78 77 79 78 79
MSLP
1008.38 1009.00 1009.90 1010.39 1010.69 1011.13 1011.19 1011.43 1011.75 1011.75 1011.83 1012.24 1012.39 1012.58 1012.53 1012.81 1012.89 1013.09 1013.46 1013.29 1013.30 1013.34 1013.44 1013.43 1013.23 1013.23 1013.34 1013.43 1013.23 1013.22 1012.98 1012.51 1012.26 1011.33 1010.69 1010.72 1010.46 1010.64 1010.31 1010.45 1010.35 1010.37 1010.36
1008.01 1008.62 1009.06 1009.62 1009.91 1010.02 1010.47 1010.87 1011.27 1011.62 1011.90 1012.17 1012.52 1012.82 1013.19 1013.34 1013.39 1013.54 1013.33 1013.41 1013.25 1013.15 1013.00 1013.21 1013.00 1012.71 1012.55 1012.71 1012.88 1012.86 1012.77 1012.73 1012.79 1012.26 1012.08 1011.92 1011.53 1011.69 1011.55 1011.41 1011.17 1010.42 1010.03
1007.93 1008.41 1008.60 1009.11 1009.42 1009.56 1009.77 1010.30 1010.87 1011.65 1012.19 1012.32 1013.10 1013.50 1013.67 1013.59 1013.73 1013.60 1013.46 1013.37 1013.20 1013.01 1012.95 1012.95 1013.04 1012.80 1012.56 1012.37 1012.69 1012.78 1012.69 1012.65 1012.64 1012.59 1012.58 1012.67 1012.77 1012.36 1012.06 1011.60 1011.33 1011.03 1010.63
1007.88 1008.09 1008.22 1008.55 1008.99 1009.27 1009.24 1010.28 1010.56 1011.49 1012.10 1012.83 1013.33 1013.75 1013.84 1013.67 1013.87 1013.88 1013.69 1013.51 1013.34 1013.35 1013.24 1013.21 1012.94 1012.78 1012.79 1012.73 1012.77 1012.76 1012.65 1012.62 1012.62 1012.64 1012.53 1012.65 1012.61 1012.43 1012.37 1011.72 1011.11 1010.64 1010.54
1008.00 1008.14 1008.44 1008.80 1009.00 1009.53 1010.22 1010.83 1010.62 1011.71 1012.69 1012.40 1013.22 1013.73 1013.74 1013.63 1014.13 1014.06 1013.61 1013.32 1013.14 1013.21 1013.01 1012.95 1012.66 1012.75 1013.05 1013.15 1012.96 1012.63 1012.82 1012.80 1012.65 1012.41 1012.25 1012.27 1012.15 1012.09 1011.89 1011.40 1011.19 1010.73 1010.12
1008.40 1008.60 1009.00 1009.45 1009.93 1010.41 1010.43 1010.82 1011.25 1012.43 1013.15 1012.97 1013.38 1013.62 1013.84 1014.25 1014.65 1014.28 1014.04 1013.36 1013.36 1013.05 1012.87 1012.77 1012.74 1012.92 1013.00 1013.13 1013.14 1013.22 1013.20 1012.98 1012.53 1012.30 1012.17 1012.10 1011.68 1011.79 1011.60 1011.41 1011.10 1010.77 1010.16
1008.55 1008.84 1009.30 1009.68 1010.16 1010.77 1011.32 1011.63 1012.21 1012.66 1012.95 1012.97 1013.35 1013.84 1014.22 1014.55 1014.45 1014.49 1014.30 1013.69 1013.49 1013.15 1012.97 1012.93 1012.87 1013.04 1013.22 1013.11 1012.88 1012.90 1012.66 1012.76 1012.89 1012.67 1012.27 1012.12 1012.03 1011.92 1011.74 1011.37 1011.16 1011.06 1010.70
1009.11 1009.46 1009.75 1010.18 1010.63 1011.02 1011.55 1012.02 1012.49 1012.76 1012.80 1013.08 1013.56 1013.81 1014.33 1014.68 1014.60 1014.54 1014.19 1013.80 1013.54 1013.49 1013.54 1013.57 1013.48 1013.67 1014.08 1013.92 1013.44 1012.83 1012.56 1012.62 1012.62 1012.45 1012.36 1012.33 1012.38 1012.44 1012.31 1011.93 1011.50 1011.14 1010.89
1009.66 1010.04 1010.31 1010.57 1010.94 1011.37 1011.77 1012.20 1012.57 1012.83 1013.21 1013.46 1013.79 1013.92 1014.05 1014.74 1014.97 1014.58 1014.14 1013.49 1013.50 1013.67 1013.99 1014.30 1014.07 1014.29 1014.48 1014.19 1013.63 1013.00 1012.67 1012.42 1012.25 1012.51 1012.66 1012.68 1012.65 1012.74 1012.50 1012.06 1011.58 1011.24 1010.75
1010.26 1010.47 1010.69 1010.96 1011.28 1011.66 1011.98 1012.38 1012.73 1012.98 1013.15 1013.44 1013.81 1014.11 1014.55 1014.74 1015.16 1014.73 1014.16 1012.65 1012.89 1013.01 1013.37 1014.29 1014.70 1014.80 1014.61 1014.25 1013.58 1012.81 1012.45 1012.58 1012.22 1012.63 1012.76 1012.54 1012.34 1012.54 1012.48 1012.35 1012.05 1011.48 1011.19
1010.42 1010.68 1011.06 1011.39 1011.63 1011.92 1012.31 1012.66 1012.80 1012.99 1013.47 1013.66 1013.85 1014.15 1014.51 1014.81 1015.12 1015.00 1014.54 1013.60 1013.06 1012.88 1013.00 1013.30 1014.29 1014.83 1014.74 1014.40 1014.02 1013.61 1013.47 1013.30 1012.73 1012.12 1012.37 1012.55 1012.67 1012.76 1012.76 1012.78 1012.61 1012.46 1012.35
1010.68 1011.00 1011.31 1011.58 1011.56 1012.17 1012.47 1012.74 1013.03 1013.26 1013.46 1013.73 1013.80 1013.54 1014.12 1014.66 1015.06 1015.10 1014.97 1014.73 1014.43 1013.30 1013.41 1013.85 1014.56 1014.71 1014.62 1014.35 1013.95 1013.83 1013.51 1013.12 1012.37 1012.23 1012.31 1012.75 1012.75 1012.67 1012.81 1012.67 1012.73 1012.86 1012.80
1010.91 1011.29 1011.40 1011.43 1011.85 1012.26 1012.51 1012.75 1012.74 1013.07 1012.84 1013.08 1013.06 1012.94 1013.29 1013.83 1014.66 1015.14 1015.12 1014.95 1014.74 1014.24 1014.22 1014.33 1014.35 1014.20 1014.23 1014.18 1013.97 1013.58 1013.44 1012.86 1012.44 1012.38 1012.38 1012.44 1012.73 1012.79 1012.53 1012.40 1012.63 1012.90 1012.89
1011.08 1011.38 1011.59 1011.75 1011.90 1012.01 1011.91 1011.92 1011.73 1012.04 1012.21 1012.57 1012.79 1012.74 1013.13 1013.42 1013.61 1014.52 1014.80 1014.86 1014.80 1014.67 1014.31 1014.14 1013.89 1013.66 1013.54 1013.38 1013.30 1013.52 1012.91 1013.01 1013.01 1012.59 1012.31 1012.77 1012.78 1012.84 1012.69 1012.16 1012.45 1012.56 1013.16
1011.06 1011.24 1011.27 1011.38 1011.46 1011.69 1011.98 1012.02 1012.06 1012.79 1013.41 1013.09 1012.91 1012.68 1013.11 1013.48 1014.84 1015.21 1015.25 1014.94 1014.99 1014.76 1014.65 1013.69 1013.61 1013.49 1013.24 1012.58 1012.74 1012.82 1013.02 1012.62 1012.81 1012.66 1012.66 1012.64 1012.71 1012.67 1012.76 1012.43 1012.37 1012.38 1012.87
1010.70 1010.77 1010.53 1010.75 1011.09 1011.09 1011.47 1012.36 1013.11 1013.42 1013.75 1013.94 1014.06 1014.08 1014.26 1014.76 1015.25 1015.52 1015.64 1015.59 1015.31 1014.98 1014.37 1013.64 1013.22 1013.29 1013.37 1013.16 1012.25 1012.26 1012.58 1013.04 1012.95 1013.03 1012.70 1012.78 1012.72 1012.69 1012.59 1012.65 1012.68 1012.82 1012.94
1010.17 1010.22 1010.07 1010.09 1009.81 1010.23 1010.65 1011.38 1012.40 1013.79 1013.94 1014.07 1014.30 1014.57 1014.85 1015.23 1015.52 1015.68 1015.69 1015.42 1014.89 1015.00 1014.23 1013.12 1012.84 1013.33 1013.38 1013.27 1012.64 1012.52 1012.92 1013.29 1013.53 1013.06 1013.09 1013.10 1013.04 1012.88 1012.61 1012.86 1012.61 1012.90 1013.44
1010.04 1010.08 1009.90 1009.95 1009.51 1009.97 1010.18 1010.59 1010.70 1011.83 1012.73 1013.60 1014.21 1014.50 1014.90 1015.21 1015.44 1015.53 1015.46 1015.07 1014.23 1013.88 1012.87 1012.13 1012.15 1012.80 1012.99 1013.04 1012.86 1012.94 1012.85 1013.17 1013.35 1013.46 1013.30 1013.33 1013.12 1013.15 1013.23 1012.94 1013.11 1013.14 1013.04
1010.02 1009.88 1009.83 1009.43 1009.52 1009.75 1009.88 1010.00 1010.14 1010.54 1011.08 1011.57 1012.71 1014.28 1014.56 1014.77 1014.89 1015.08 1015.03 1014.02 1012.65 1011.90 1011.69 1011.57 1011.60 1011.99 1012.66 1012.85 1013.13 1013.14 1013.22 1013.45 1013.54 1013.35 1013.29 1013.28 1013.18 1013.12 1013.11 1012.99 1013.02 1013.37 1013.57
1009.76 1009.82 1009.74 1009.10 1009.37 1009.90 1009.96 1009.79 1009.56 1010.19 1010.61 1010.66 1011.01 1011.75 1013.11 1013.83 1013.74 1013.67 1013.43 1012.20 1011.61 1011.44 1011.55 1011.44 1011.45 1012.10 1012.33 1012.61 1012.83 1012.90 1012.96 1013.10 1013.29 1013.15 1013.08 1013.12 1013.38 1013.36 1013.23 1013.22 1013.16 1013.10 1013.77
1008.97 1009.49 1009.81 1009.50 1008.88 1008.99 1009.15 1009.31 1009.31 1009.38 1009.66 1009.89 1009.99 1010.95 1012.00 1011.97 1011.57 1011.20 1011.07 1010.98 1010.89 1011.21 1011.43 1011.56 1011.32 1011.43 1011.61 1012.13 1012.01 1012.46 1012.86 1012.85 1012.97 1013.05 1012.92 1013.12 1013.50 1013.62 1013.48 1013.20 1013.16 1013.28 1013.77
1008.05 1008.85 1009.70 1009.61 1009.30 1009.18 1008.89 1008.83 1009.02 1009.38 1009.57 1009.69 1009.80 1010.88 1011.32 1011.19 1010.92 1010.27 1010.13 1010.19 1010.26 1010.93 1011.13 1011.56 1011.34 1011.38 1011.38 1011.83 1012.08 1011.92 1012.46 1012.83 1012.80 1012.85 1012.85 1012.82 1013.09 1013.24 1013.32 1013.01 1013.17 1013.21 1013.60
1007.99 1008.10 1008.69 1008.98 1008.89 1009.20 1009.30 1009.30 1009.06 1009.16 1009.29 1009.45 1009.62 1009.96 1010.62 1010.07 1009.54 1009.73 1009.82 1009.85 1010.13 1010.67 1010.68 1011.02 1011.31 1011.41 1011.36 1011.39 1011.44 1011.88 1012.05 1012.43 1012.66 1012.93 1012.97 1012.71 1012.98 1013.05 1013.26 1013.27 1013.29 1013.46 1013.78
1007.73 1007.85 1007.98 1008.46 1009.10 1009.21 1009.14 1009.03 1009.20 1009.28 1009.42 1009.18 1009.11 1009.24 1009.23 1009.18 1009.17 1009.42 1010.02 1009.96 1009.93 1010.12 1010.24 1010.51 1010.79 1011.27 1011.55 1011.59 1011.15 1011.49 1011.42 1012.06 1012.20 1012.43 1012.60 1012.85 1013.04 1013.19 1013.03 1012.81 1012.95 1013.21 1013.63
1007.25 1007.78 1007.94 1008.12 1008.58 1009.20 1009.02 1008.88 1008.60 1008.78 1008.76 1008.94 1008.82 1008.76 1008.65 1008.78 1009.04 1009.21 1009.51 1009.68 1009.81 1010.12 1010.17 1010.07 1010.14 1010.45 1011.13 1011.55 1011.72 1011.89 1012.76 1012.90 1012.84 1013.09 1012.35 1012.65 1012.90 1013.01 1013.05 1012.91 1012.82 1013.36 1013.37
1006.98 1007.57 1007.96 1008.14 1008.44 1008.60 1008.64 1008.65 1008.81 1008.77 1008.80 1008.72 1008.60 1008.64 1008.79 1008.84 1008.88 1008.91 1009.09 1009.34 1009.56 1009.63 1009.71 1009.71 1009.70 1010.15 1010.47 1011.00 1011.28 1012.20 1012.77 1012.97 1013.02 1013.24 1012.93 1012.17 1012.65 1012.88 1012.99 1012.99 1012.78 1012.93 1012.92
Wind_Speed
11 11 10 11 12 11 11 11 10 10 8 8 8 7 7 7 5 4 4 5 3 3 4 5 7 7 5 5 6 6 7 6 10 10 12 8 8 10 7 8 9 9 10
8 9 12 12 12 13 12 11 9 10 9 6 6 4 4 5 3 4 2 4 5 5 4 6 8 8 8 7 6 8 7 6 5 11 6 9 14 9 11 10 9 10 11
8 11 13 13 13 12 11 10 9 6 7 6 3 3 6 5 2 3 4 6 8 8 8 8 8 8 10 9 6 6 6 6 5 6 5 1 5 9 11 9 8 7 8
9 12 12 13 10 10 5 4 4 4 1 3 2 6 7 3 3 4 5 5 5 5 3 5 10 9 9 8 8 8 7 7 8 7 6 5 5 7 9 8 8 4 6
8 8 8 8 10 5 7 3 7 7 2 4 3 6 3 1 6 6 5 4 3 3 4 5 5 4 3 4 5 7 9 7 7 7 6 5 4 5 6 5 6 7 8
9 10 8 6 5 6 6 9 7 7 2 2 2 1 5 5 7 7 6 5 3 4 4 5 4 1 4 6 6 7 8 8 9 7 6 7 7 6 5 7 7 6 6
5 7 8 8 9 8 8 8 7 5 6 5 4 5 7 6 11 10 7 3 4 3 5 5 5 4 6 8 3 8 10 7 7 6 6 6 7 6 7 9 9 7 6
5 7 7 7 8 10 10 9 9 7 6 5 6 6 6 6 10 11 11 3 2 7 9 10 8 9 9 9 9 7 6 0 2 2 5 7 8 8 8 8 9 7 6
8 8 7 9 11 9 10 9 8 8 7 6 6 5 7 7 9 12 12 7 5 7 8 9 9 9 10 10 6 3 6 4 3 2 2 1 4 6 8 6 5 5 4
7 7 7 8 10 10 10 9 7 7 6 7 7 7 4 6 8 12 12 3 4 7 6 9 8 6 9 11 9 7 4 5 5 4 3 3 4 8 9 10 7 7 7
10 10 10 10 9 9 9 7 6 7 7 6 6 5 5 5 6 8 11 5 7 5 4 6 7 5 7 9 9 7 6 8 6 3 3 4 6 6 6 6 7 7 7
10 11 10 9 9 8 8 6 6 6 6 4 3 5 6 5 4 4 7 6 9 4 6 5 4 2 5 9 6 4 9 9 5 7 5 4 4 5 3 3 6 6 5
11 11 10 9 9 8 7 6 6 3 4 6 5 4 5 6 5 6 5 6 7 1 4 2 5 9 7 8 12 10 8 4 5 4 4 5 4 3 2 4 7 6 8
11 10 9 9 8 8 8 8 6 6 3 4 4 4 4 3 3 7 7 6 7 6 7 7 7 5 6 3 1 6 4 6 4 5 5 4 3 5 5 5 6 4 7
10 10 10 9 8 6 3 6 6 7 6 5 2 3 2 4 5 6 5 5 5 5 8 4 4 5 3 1 4 4 2 2 5 4 6 5 4 3 5 3 5 6 8
11 9 9 9 7 8 8 6 9 8 6 6 6 7 6 10 8 5 2 3 6 7 5 4 3 5 5 6 6 5 3 3 5 4 3 4 4 4 4 6 4 5 6
10 9 7 6 9 6 3 7 8 3 4 3 2 3 7 5 7 5 3 7 12 5 7 5 5 4 3 4 7 7 5 4 3 4 5 3 4 5 4 4 4 5 6
11 4 6 7 3 5 5 5 5 10 9 7 5 5 7 7 6 4 4 8 8 8 9 2 3 5 2 3 4 6 4 3 3 3 3 3 4 4 4 3 6 4 4
9 9 9 7 6 1 5 4 5 4 1 8 8 4 7 8 7 6 5 6 8 5 6 6 4 5 2 3 6 3 3 5 4 3 3 3 3 4 3 2 5 4 3
11 4 10 7 8 4 6 6 3 2 3 5 6 10 9 6 7 8 8 8 4 4 5 6 5 5 3 1 4 3 0 1 2 1 2 2 2 2 3 3 4 5 4
9 8 5 8 5 8 7 8 5 3 5 4 7 7 9 4 8 3 7 5 2 5 4 6 5 1 4 5 3 4 2 2 2 1 1 1 2 1 4 0 4 5 5
7 10 9 8 7 6 6 5 5 5 3 3 4 9 12 6 8 7 1 5 4 4 1 2 3 4 4 3 2 3 4 1 4 1 3 3 2 1 1 4 3 2 5
7 7 9 9 7 2 3 5 5 5 5 5 5 7 9 9 5 2 3 3 2 2 2 1 4 4 4 3 1 2 4 5 3 1 3 4 2 2 3 2 2 0 3
8 7 8 6 4 5 8 9 8 3 6 7 4 4 5 4 4 3 1 6 2 3 2 3 2 2 2 4 0 3 2 6 3 1 2 4 3 4 5 2 2 3 3
8 6 6 6 8 7 7 5 4 6 5 7 5 4 4 4 4 4 5 4 3 4 6 6 4 5 5 4 4 4 7 5 4 6 5 1 4 5 4 4 3 4 5
8 6 5 4 5 6 7 6 7 6 6 6 5 4 4 5 5 5 3 4 4 5 6 5 5 6 3 6 8 11 9 5 2 3 6 5 2 4 4 6 5 5 6
Wind_Direction
196 182 194 198 202 208 216 220 228 239 238 230 238 250 246 263 284 277 327 321 336 285 245 275 274 259 263 260 258 266 267 278 268 282 314 10 17 337 308 296 290 247 250
189 192 192 202 208 206 213 213 222 232 241 226 239 253 303 340 337 8 290 301 292 284 281 284 283 284 278 242 246 258 267 263 252 268 305 337 337 337 315 296 292 291 317
192 194 199 200 204 216 203 216 202 222 245 272 283 296 340 318 272 295 307 291 277 275 278 290 288 286 285 291 308 282 270 275 271 271 266 68 282 311 303 277 265 264 268
206 195 192 192 194 213 174 165 272 128 107 326 326 328 315 327 322 322 306 312 334 325 344 298 288 293 289 298 303 290 287 290 282 261 259 230 233 279 275 274 279 271 273
219 203 173 199 162 185 134 215 116 146 227 103 335 314 326 331 34 339 324 337 309 190 251 267 276 314 328 317 302 314 317 299 289 288 280 269 270 280 286 305 285 294 289
191 194 176 156 180 172 134 101 110 97 233 37 171 60 49 56 354 7 331 352 30 345 330 300 313 287 269 269 265 257 267 292 293 286 302 299 303 316 315 302 310 304 303
173 152 161 159 146 122 112 116 135 171 174 141 132 79 67 47 12 349 335 39 337 333 349 356 33 57 358 341 331 252 257 239 253 294 301 310 302 324 313 308 310 304 289
108 98 112 124 129 136 133 132 143 145 124 105 88 80 83 50 2 343 321 306 67 59 42 24 21 39 23 348 335 320 343 279 272 284 319 359 358 354 343 328 314 306 292
113 116 124 123 125 124 120 124 122 118 113 99 88 81 76 56 357 346 348 84 74 89 73 43 26 35 3 349 319 337 358 360 174 118 27 15 8 33 358 342 351 313 308
113 109 110 110 118 125 121 117 114 116 103 106 96 90 74 78 31 357 352 41 72 112 124 117 74 33 350 347 346 352 5 36 3 186 203 195 40 34 12 16 359 356 354
130 123 121 131 128 122 121 124 123 75 96 92 96 93 77 36 63 6 353 337 10 41 63 51 63 32 345 330 327 19 4 324 312 11 69 69 49 36 27 30 18 25 8
132 133 129 143 140 131 129 121 109 121 115 118 143 179 116 94 39 50 358 351 343 341 26 61 93 237 277 296 326 306 299 302 320 49 16 56 18 34 42 30 60 52 45
137 139 146 133 127 136 135 144 148 203 174 176 188 134 127 143 144 176 231 256 271 17 33 133 239 253 219 250 258 275 267 43 344 41 24 43 46 41 343 93 106 91 53
149 148 148 148 147 158 174 188 185 183 181 159 177 166 125 137 124 176 202 208 234 226 197 222 217 240 306 15 268 224 30 16 8 0 9 76 32 33 13 40 69 84 51
157 163 168 147 181 174 322 26 37 49 23 344 178 168 192 157 86 64 21 10 358 14 322 260 226 208 254 85 130 79 332 34 35 356 18 20 84 109 92 27 64 78 73
173 178 183 157 163 198 155 155 63 74 83 65 44 36 90 91 114 110 66 331 297 310 269 231 13 42 51 345 358 24 61 14 36 347 50 41 353 58 39 65 61 60 82
200 189 179 245 184 158 196 155 164 142 64 55 64 72 67 113 146 157 239 281 272 270 237 280 80 61 76 18 331 35 28 355 5 356 359 52 16 37 16 39 47 78 87
221 161 185 232 179 147 191 179 224 167 169 173 213 224 161 151 169 194 271 286 241 215 262 152 89 121 219 173 315 28 10 1 360 40 332 54 337 73 17 348 80 43 85
221 184 236 198 180 65 179 226 218 119 16 143 145 194 175 182 193 215 248 258 291 333 26 348 111 156 221 131 107 66 352 19 352 348 23 349 343 24 4 355 97 81 25
204 18 220 224 141 202 222 234 214 152 176 190 216 163 160 172 212 203 208 223 311 7 19 343 35 69 62 106 159 153 119 41 17 345 344 19 47 11 317 6 2 97 100
184 173 257 266 234 189 211 199 235 206 202 214 205 102 100 270 319 231 207 195 45 351 58 349 334 280 175 179 9 137 82 7 90 340 320 115 170 329 318 259 276 124 122
188 155 187 228 234 244 241 225 204 204 228 234 215 150 157 217 251 261 192 239 152 150 106 301 335 5 40 30 283 359 164 106 323 3 324 169 153 190 237 283 33 300 116
208 187 172 199 217 132 211 267 267 226 240 220 245 163 188 230 236 320 292 273 107 228 210 184 13 339 11 303 73 19 312 161 188 229 238 306 168 279 180 272 236 70 99
200 205 188 185 183 202 217 199 223 245 321 301 299 269 266 278 289 81 306 301 293 267 276 182 177 12 31 265 67 254 35 26 5 201 241 238 149 221 259 249 201 185 168
173 197 212 195 167 205 265 262 251 242 220 222 259 276 268 240 234 236 223 241 262 309 308 292 233 169 183 224 299 20 90 70 329 338 276 318 183 239 244 248 185 199 224
150 157 185 205 215 237 225 230 234 256 255 264 260 260 269 289 299 294 295 308 295 288 283 274 272 185 193 205 225 124 140 151 223 313 300 240 165 203 234 256 239 232 206